Evansville, IN

7:14 AM CDT on August 17, 2017 (GMT -0500)
Evansville Regional

Weather History for KEVV - December, 2012

Change the Weather History Date:

Sunday, December 9, 2012

  Actual Average Record
Temperature  
Mean Temperature 57 °F 37 °F  
Max Temperature 65 °F 46 °F 68 °F (1897)
Min Temperature 48 °F 28 °F -5 °F (1917)
Degree Days  
Heating Degree Days 8 28  
Month to date heating degree days 100 240  
Since 1 July heating degree days 1062 1101  
Cooling Degree Days 0 0  
Month to date cooling degree days 2 0  
Year to date cooling degree days 1845 1397  
Growing Degree Days 6 (Base 50)    
Moisture  
Dew Point 52 °F    
Average Humidity 86    
Maximum Humidity 93    
Minimum Humidity 78    
Precipitation  
Precipitation 0.67 in 0.13 in 1.66 in (1923)
Month to date precipitation 1.25 1.19  
Year to date precipitation 30.91 42.74  
Snow  
Snow 0.00 in 0.10 in 3.30 in (1961)
Month to date snowfall 0.0 0.5  
Since 1 July snowfall T 0.8  
Snow Depth 0.00 in    
Sea Level Pressure  
Sea Level Pressure 29.82 in    
Wind  
Wind Speed 8 mph (South)    
Max Wind Speed 23 mph    
Max Gust Speed 36 mph    
Visibility 8 miles    
Events Rain , Thunderstorm    
T = Trace of Precipitation, MM = Missing Value Source: NWS Daily Summary

Daily Weather History Graph

Daily Weather History Graph

Search for Another Location

Airport or City:

Trip Planner

Search our weather history database for the weather conditions in past years. The results will help you decide how hot, cold, wet, or windy it might be!

Date:

Astronomy

Dec. 09, 2012 Rise Set
Actual Time 6:54 AM CST 4:30 PM CST
Civil Twilight 6:25 AM CST 4:59 PM CST
Nautical Twilight 5:52 AM CST 5:32 PM CST
Astronomical Twilight 5:20 AM CST 6:04 PM CST
Moon 2:30 AM CST (12/9) 1:34 PM CST (12/9)
Length of Visible Light 10h 34m
Length of Day
9h 35m
Waning Crescent, 18% of the Moon is Illuminated
Dec 9
Waning Crescent
Dec 13
New
Dec 19
First Quarter
Dec 28
Full
Jan 4
Last Quarter

Hourly Weather History & Observations

Time (CST) Temp. Dew Point Humidity Pressure Visibility Wind Dir Wind Speed Gust Speed Precip Events Conditions
12:54 AM 48.9 °F 45.0 °F 86% 29.97 in 8.0 mi NNE 4.6 mph - N/A   Overcast
1:54 AM 48.9 °F 45.0 °F 86% 29.96 in 7.0 mi ENE 8.1 mph - N/A   Overcast
2:54 AM 50.0 °F 46.0 °F 86% 29.95 in 8.0 mi East 3.5 mph - N/A   Overcast
3:33 AM 50.0 °F 46.4 °F 87% 29.92 in 8.0 mi East 5.8 mph - N/A   Overcast
3:42 AM 50.0 °F 46.4 °F 87% 29.92 in 8.0 mi East 4.6 mph - N/A   Overcast
3:54 AM 50.0 °F 46.0 °F 86% 29.91 in 8.0 mi East 4.6 mph - N/A   Overcast
4:05 AM 50.0 °F 46.4 °F 87% 29.91 in 8.0 mi East 5.8 mph - N/A   Overcast
4:19 AM 50.0 °F 46.4 °F 87% 29.91 in 8.0 mi ESE 5.8 mph - N/A   Overcast
4:30 AM 50.0 °F 46.4 °F 87% 29.91 in 7.0 mi East 3.5 mph - N/A   Overcast
4:42 AM 50.0 °F 46.4 °F 87% 29.91 in 7.0 mi ESE 4.6 mph - N/A   Overcast
4:54 AM 51.1 °F 46.9 °F 86% 29.91 in 7.0 mi East 8.1 mph - 0.00 in Rain , Thunderstorm Light Rain
5:11 AM 51.8 °F 46.4 °F 82% 29.90 in 7.0 mi East 6.9 mph - 0.00 in Rain Light Rain
5:54 AM 51.1 °F 48.0 °F 89% 29.88 in 6.0 mi East 8.1 mph - 0.00 in   Overcast
6:54 AM 52.0 °F 48.9 °F 89% 29.87 in 6.0 mi ESE 5.8 mph - 0.00 in Rain Light Rain
7:30 AM 53.6 °F 51.8 °F 94% 29.89 in 1.5 mi SSE 8.1 mph - 0.04 in Rain Light Rain
7:54 AM 53.1 °F 51.1 °F 93% 29.87 in 1.5 mi SE 8.1 mph - 0.07 in Rain Light Rain
8:01 AM 53.6 °F 51.8 °F 94% 29.86 in 2.0 mi SE 9.2 mph - 0.00 in Rain Light Rain
8:20 AM 53.6 °F 51.8 °F 94% 29.87 in 2.0 mi SSE 8.1 mph - 0.00 in   Overcast
8:39 AM 55.4 °F 51.8 °F 88% 29.87 in 2.0 mi SSE 5.8 mph - 0.00 in   Overcast
8:54 AM 55.9 °F 53.1 °F 90% 29.88 in 7.0 mi South 6.9 mph - 0.00 in   Overcast
9:54 AM 60.1 °F 55.0 °F 83% 29.87 in 10.0 mi South 6.9 mph - N/A   Overcast
10:54 AM 62.1 °F 55.9 °F 80% 29.85 in 10.0 mi SSW 6.9 mph - N/A   Mostly Cloudy
11:54 AM 64.0 °F 57.0 °F 78% 29.82 in 10.0 mi SSW 9.2 mph - N/A   Mostly Cloudy
12:28 PM 64.4 °F 57.2 °F 77% 29.81 in 10.0 mi SSW 12.7 mph - N/A   Mostly Cloudy
12:54 PM 63.0 °F 57.0 °F 81% 29.81 in 10.0 mi SSW 13.8 mph 20.7 mph N/A   Overcast
1:12 PM 62.6 °F 57.2 °F 82% 29.81 in 8.0 mi SSW 9.2 mph - 0.00 in Rain Light Rain
1:23 PM 62.6 °F 57.2 °F 82% 29.80 in 5.0 mi South 9.2 mph - 0.02 in Rain Rain
1:37 PM 62.6 °F 57.2 °F 82% 29.79 in 10.0 mi SSW 9.2 mph - 0.02 in Rain Light Rain
1:54 PM 63.0 °F 57.9 °F 84% 29.78 in 10.0 mi SSW 5.8 mph - 0.02 in   Overcast
2:47 PM 62.6 °F 57.2 °F 82% 29.78 in 10.0 mi South 6.9 mph - N/A   Mostly Cloudy
2:54 PM 63.0 °F 57.9 °F 84% 29.78 in 10.0 mi South 6.9 mph - N/A   Mostly Cloudy
3:16 PM 62.6 °F 57.2 °F 82% 29.77 in 10.0 mi South 9.2 mph - N/A Thunderstorm Mostly Cloudy
3:54 PM 62.1 °F 57.9 °F 86% 29.77 in 10.0 mi NW 3.5 mph - N/A Thunderstorm Overcast
4:08 PM 62.6 °F 57.2 °F 82% 29.76 in 10.0 mi NNE 3.5 mph - N/A   Overcast
4:39 PM 60.8 °F 57.2 °F 88% 29.75 in 10.0 mi SE 3.5 mph - 0.00 in Thunderstorm Overcast
4:54 PM 61.0 °F 57.9 °F 90% 29.75 in 10.0 mi Calm Calm - 0.00 in Thunderstorm Overcast
5:19 PM 60.8 °F 57.2 °F 88% 29.74 in 10.0 mi Calm Calm - 0.00 in Rain Light Rain
5:54 PM 61.0 °F 57.9 °F 90% 29.74 in 6.0 mi Variable 5.8 mph - 0.01 in Rain Light Rain
6:12 PM 60.8 °F 57.2 °F 88% 29.74 in 4.0 mi NNW 9.2 mph 18.4 mph 0.02 in Rain , Thunderstorm Heavy Rain
6:39 PM 59.0 °F 55.4 °F 88% 29.79 in 1.5 mi West 23.0 mph 35.7 mph 0.20 in Rain , Thunderstorm Heavy Rain
6:44 PM 59.0 °F 55.4 °F 88% 29.77 in 1.0 mi WSW 16.1 mph 35.7 mph 0.44 in Rain , Thunderstorm Heavy Thunderstorms and Rain
6:49 PM 59.0 °F 55.4 °F 88% 29.77 in 1.5 mi WSW 17.3 mph 23.0 mph 0.50 in Rain , Thunderstorm Heavy Thunderstorms and Rain
6:51 PM 59.0 °F 55.4 °F 88% 29.77 in 3.0 mi WSW 17.3 mph 23.0 mph 0.51 in Rain , Thunderstorm Heavy Thunderstorms and Rain
6:54 PM 59.0 °F 55.9 °F 90% 29.75 in 3.0 mi WSW 13.8 mph 23.0 mph 0.52 in Rain , Thunderstorm Heavy Thunderstorms and Rain
7:28 PM 59.0 °F 55.4 °F 88% 29.74 in 10.0 mi SW 9.2 mph - 0.04 in Rain Light Rain
7:45 PM 59.0 °F 55.4 °F 88% 29.75 in 10.0 mi SW 8.1 mph - 0.05 in Rain Light Rain
7:54 PM 59.0 °F 55.9 °F 90% 29.75 in 10.0 mi SW 9.2 mph - 0.05 in Rain Light Rain
8:34 PM 53.6 °F 51.8 °F 94% 29.76 in 10.0 mi NW 11.5 mph 21.9 mph 0.00 in   Overcast
8:54 PM 54.0 °F 50.0 °F 86% 29.76 in 10.0 mi NW 12.7 mph - 0.00 in   Overcast
9:33 PM 53.6 °F 48.2 °F 82% 29.77 in 10.0 mi NW 8.1 mph - N/A   Overcast
9:54 PM 53.1 °F 48.0 °F 83% 29.78 in 10.0 mi NW 9.2 mph - N/A   Overcast
10:10 PM 51.8 °F 46.4 °F 82% 29.79 in 10.0 mi NW 9.2 mph - N/A   Overcast
10:54 PM 51.1 °F 46.0 °F 83% 29.81 in 10.0 mi WNW 12.7 mph 17.3 mph N/A   Overcast
11:29 PM 48.2 °F 44.6 °F 87% 29.81 in 10.0 mi NW 15.0 mph 20.7 mph N/A   Overcast
11:52 PM 48.2 °F 44.6 °F 87% 29.82 in 10.0 mi NW 10.4 mph - N/A   Overcast
11:54 PM 48.0 °F 44.1 °F 86% 29.81 in 10.0 mi NW 12.7 mph - N/A   Overcast